| time (UTC) | temp F | wind direction | speed MPH | gust MPH | rain 1hr in | rain 24hr in | rain mn in | humidity % | barometer mb |
| 20260502220804 | 67 | 312 | 5.0 | 12.0 | 0.00 | 0.00 | 0.00 | 49 | 1011.4 |
| 20260502220304 | 67 | 298 | 7.0 | 14.0 | 0.00 | 0.00 | 0.00 | 48 | 1011.5 |
| 20260502215305 | 69 | 292 | 5.0 | 9.0 | 0.00 | 0.00 | 0.00 | 48 | 1011.7 |
| 20260502214804 | 69 | 282 | 4.0 | 7.0 | 0.00 | 0.00 | 0.00 | 48 | 1011.6 |
| 20260502214304 | 69 | 329 | 2.0 | 5.0 | 0.00 | 0.00 | 0.00 | 49 | 1011.7 |
| 20260502213804 | 68 | 284 | 2.0 | 7.0 | 0.00 | 0.00 | 0.00 | 50 | 1011.8 |
| 20260502213304 | 68 | 304 | 3.0 | 7.0 | 0.00 | 0.00 | 0.00 | 50 | 1012.0 |
| 20260502212804 | 68 | 333 | 2.0 | 6.0 | 0.00 | 0.00 | 0.00 | 52 | 1012.0 |
| 20260502212305 | 66 | 239 | 4.0 | 9.0 | 0.00 | 0.00 | 0.00 | 54 | 1012.0 |
| 20260502211804 | 65 | 318 | 3.0 | 6.0 | 0.00 | 0.00 | 0.00 | 55 | 1012.0 |
| 20260502211303 | 65 | 270 | 4.0 | 6.0 | 0.00 | 0.00 | 0.00 | 55 | 1012.1 |
| 20260502210804 | 65 | 286 | 3.0 | 5.0 | 0.00 | 0.00 | 0.00 | 55 | 1012.2 |
| 20260502205804 | 64 | 274 | 5.0 | 9.0 | 0.00 | 0.00 | 0.00 | 55 | 1012.5 |
| 20260502205305 | 64 | 297 | 4.0 | 8.0 | 0.00 | 0.00 | 0.00 | 55 | 1012.5 |
| 20260502204304 | 65 | 301 | 2.0 | 6.0 | 0.00 | 0.00 | 0.00 | 54 | 1012.4 |
| 20260502203804 | 65 | 317 | 2.0 | 6.0 | 0.00 | 0.00 | 0.00 | 52 | 1012.5 |
| 20260502203303 | 67 | 320 | 3.0 | 7.0 | 0.00 | 0.00 | 0.00 | 50 | 1012.6 |
| 20260502202804 | 68 | 20 | 2.0 | 3.0 | 0.00 | 0.00 | 0.00 | 50 | 1012.6 |
| 20260502202305 | 67 | 350 | 1.0 | 3.0 | 0.00 | 0.00 | 0.00 | 52 | 1012.6 |
| 20260502201805 | 67 | 7 | 2.0 | 5.0 | 0.00 | 0.00 | 0.00 | 52 | 1012.6 |
| 20260502201303 | 66 | 356 | 2.0 | 3.0 | 0.00 | 0.00 | 0.00 | 52 | 1012.6 |
| 20260502200804 | 65 | 326 | 1.0 | 5.0 | 0.00 | 0.00 | 0.00 | 53 | 1012.6 |
| 20260502200304 | 65 | 327 | 2.0 | 5.0 | 0.00 | 0.00 | 0.00 | 53 | 1012.6 |
| 20260502195804 | 64 | 77 | 2.0 | 6.0 | 0.00 | 0.00 | 0.00 | 63 | 1012.5 |
| 20260502195305 | 62 | 178 | 1.0 | 2.0 | 0.00 | 0.00 | 0.00 | 64 | 1012.5 |
| 20260502194804 | 61 | 158 | 2.0 | 2.0 | 0.00 | 0.00 | 0.00 | 66 | 1012.7 |
| 20260502193804 | 59 | 188 | 3.0 | 5.0 | 0.00 | 0.00 | 0.00 | 66 | 1012.9 |
| 20260502192803 | 59 | 19 | 1.0 | 2.0 | 0.00 | 0.00 | 0.00 | 64 | 1013.3 |
| 20260502192305 | 60 | 4 | 1.0 | 2.0 | 0.00 | 0.00 | 0.00 | 64 | 1013.5 |
| 20260502191805 | 59 | 3 | 2.0 | 5.0 | 0.00 | 0.00 | 0.00 | 63 | 1013.7 |
| 20260502191304 | 58 | 235 | 4.0 | 8.0 | 0.00 | 0.00 | 0.00 | 63 | 1013.8 |
| 20260502190804 | 58 | 272 | 5.0 | 8.0 | 0.00 | 0.00 | 0.00 | 64 | 1013.9 |
| 20260502190304 | 58 | 290 | 5.0 | 9.0 | 0.00 | 0.00 | 0.00 | 64 | 1014.0 |
| 20260502185804 | 58 | 282 | 6.0 | 10.0 | 0.00 | 0.00 | 0.00 | 63 | 1014.1 |
| 20260502185305 | 58 | 285 | 6.0 | 13.0 | 0.00 | 0.00 | 0.00 | 64 | 1014.2 |
| 20260502184803 | 58 | 287 | 7.0 | 13.0 | 0.00 | 0.00 | 0.00 | 63 | 1014.3 |
| 20260502184304 | 58 | 281 | 6.0 | 10.0 | 0.00 | 0.00 | 0.00 | 63 | 1014.3 |
| 20260502183804 | 58 | 291 | 6.0 | 10.0 | 0.00 | 0.00 | 0.00 | 64 | 1014.3 |
| 20260502182803 | 58 | 284 | 7.0 | 14.0 | 0.00 | 0.00 | 0.00 | 63 | 1014.3 |
| 20260502182305 | 57 | 305 | 7.0 | 16.0 | 0.00 | 0.00 | 0.00 | 64 | 1014.3 |
| 20260502181803 | 57 | 281 | 7.0 | 17.0 | 0.00 | 0.00 | 0.00 | 65 | 1014.3 |
| 20260502181304 | 56 | 275 | 10.0 | 17.0 | 0.00 | 0.00 | 0.00 | 64 | 1014.3 |
| 20260502180804 | 57 | 289 | 6.0 | 13.0 | 0.00 | 0.00 | 0.00 | 64 | 1014.3 |
| 20260502180304 | 58 | 299 | 5.0 | 10.0 | 0.00 | 0.00 | 0.00 | 64 | 1014.3 |
| 20260502170304 | 54 | 293 | 7.0 | 12.0 | 0.00 | 0.00 | 0.00 | 68 | 1013.7 |
| 20260502164304 | 54 | 322 | 3.0 | 7.0 | 0.00 | 0.00 | 0.00 | 70 | 1014.5 |
| 20260502163803 | 54 | 272 | 5.0 | 9.0 | 0.00 | 0.00 | 0.00 | 69 | 1014.6 |
| 20260502163304 | 54 | 283 | 5.0 | 10.0 | 0.00 | 0.00 | 0.00 | 70 | 1014.6 |
| 20260502161304 | 54 | 302 | 6.0 | 13.0 | 0.00 | 0.00 | 0.00 | 70 | 1014.5 |
| 20260502160304 | 53 | 290 | 9.0 | 16.0 | 0.00 | 0.00 | 0.00 | 69 | 1014.7 |
| 20260502152305 | 53 | 280 | 7.0 | 17.0 | 0.00 | 0.00 | 0.00 | 70 | 1014.5 |
| 20260502150804 | 53 | 277 | 7.0 | 20.0 | 0.00 | 0.00 | 0.00 | 69 | 1014.2 |
| 20260502150303 | 53 | 275 | 9.0 | 20.0 | 0.00 | 0.00 | 0.00 | 69 | 1014.1 |
| 20260502130304 | 53 | 272 | 12.0 | 20.0 | 0.00 | 0.00 | 0.00 | 66 | 1013.1 |
| 20260502123803 | 52 | 287 | 12.0 | 22.0 | 0.00 | 0.00 | 0.00 | 69 | 1012.9 |
| 20260502123304 | 52 | 291 | 12.0 | 20.0 | 0.00 | 0.00 | 0.00 | 68 | 1012.9 |
| 20260502122805 | 53 | 292 | 10.0 | 18.0 | 0.00 | 0.00 | 0.00 | 69 | 1012.9 |
| 20260502122306 | 53 | 291 | 12.0 | 21.0 | 0.00 | 0.00 | 0.00 | 67 | 1012.9 |
| 20260502121805 | 53 | 302 | 8.0 | 14.0 | 0.00 | 0.00 | 0.00 | 70 | 1012.9 |
| 20260502121304 | 53 | 295 | 12.0 | 20.0 | 0.00 | 0.00 | 0.00 | 67 | 1012.9 |
| 20260502120804 | 53 | 286 | 12.0 | 18.0 | 0.00 | 0.00 | 0.00 | 68 | 1012.9 |
| 20260502120304 | 53 | 289 | 9.0 | 17.0 | 0.00 | 0.00 | 0.00 | 69 | 1013.0 |
| 20260502115804 | 54 | 284 | 6.0 | 17.0 | 0.00 | 0.00 | 0.00 | 68 | 1013.1 |
| 20260502115306 | 55 | 306 | 3.0 | 14.0 | 0.00 | 0.00 | 0.00 | 66 | 1013.2 |
| 20260502114304 | 55 | 283 | 9.0 | 14.0 | 0.00 | 0.00 | 0.00 | 66 | 1013.2 |
| 20260502113802 | 54 | 239 | 4.0 | 14.0 | 0.00 | 0.00 | 0.00 | 69 | 1013.1 |
| 20260502113302 | 54 | 267 | 5.0 | 15.0 | 0.00 | 0.00 | 0.00 | 69 | 1013.0 |
| 20260502112803 | 54 | 257 | 11.0 | 18.0 | 0.00 | 0.00 | 0.00 | 66 | 1012.9 |
| 20260502112305 | 54 | 282 | 11.0 | 20.0 | 0.00 | 0.00 | 0.00 | 65 | 1012.7 |
| 20260502111803 | 55 | 266 | 11.0 | 23.0 | 0.00 | 0.00 | 0.00 | 63 | 1012.6 |
| 20260502111303 | 55 | 279 | 10.0 | 20.0 | 0.00 | 0.00 | 0.00 | 64 | 1012.7 |
| 20260502110802 | 55 | 282 | 13.0 | 21.0 | 0.00 | 0.00 | 0.00 | 62 | 1012.6 |
| 20260502110302 | 55 | 259 | 9.0 | 15.0 | 0.00 | 0.00 | 0.00 | 65 | 1012.8 |
| 20260502105802 | 55 | 273 | 12.0 | 20.0 | 0.00 | 0.00 | 0.00 | 62 | 1012.8 |
| 20260502105305 | 55 | 280 | 8.0 | 20.0 | 0.00 | 0.00 | 0.00 | 64 | 1013.1 |
| 20260502104802 | 55 | 261 | 10.0 | 21.0 | 0.00 | 0.00 | 0.00 | 64 | 1013.3 |
| 20260502103802 | 55 | 271 | 10.0 | 20.0 | 0.00 | 0.00 | 0.00 | 65 | 1013.5 |
| 20260502103303 | 55 | 238 | 6.0 | 14.0 | 0.00 | 0.00 | 0.00 | 67 | 1013.6 |
| 20260502102305 | 54 | 250 | 7.0 | 18.0 | 0.00 | 0.00 | 0.00 | 68 | 1013.3 |
| 20260502101303 | 54 | 281 | 10.0 | 16.0 | 0.00 | 0.00 | 0.00 | 66 | 1013.3 |
| 20260502100802 | 53 | 248 | 7.0 | 18.0 | 0.00 | 0.00 | 0.00 | 69 | 1013.4 |
| 20260502100303 | 54 | 287 | 12.0 | 22.0 | 0.00 | 0.00 | 0.00 | 63 | 1013.2 |
| 20260502091303 | 56 | 277 | 14.0 | 26.0 | 0.00 | 0.00 | 0.00 | 60 | 1013.7 |
| 20260502090803 | 57 | 269 | 13.0 | 28.0 | 0.00 | 0.00 | 0.00 | 58 | 1013.7 |
| 20260502090303 | 57 | 297 | 9.0 | 28.0 | 0.00 | 0.00 | 0.00 | 60 | 1013.6 |
| 20260502071302 | 59 | 272 | 10.0 | 16.0 | 0.00 | 0.00 | 0.00 | 58 | 1013.5 |
| 20260502070303 | 61 | 271 | 12.0 | 22.0 | 0.00 | 0.00 | 0.00 | 54 | 1013.4 |
| 20260502065802 | 63 | 299 | 7.0 | 15.0 | 0.00 | 0.00 | 0.00 | 50 | 1013.2 |
| 20260502065305 | 63 | 275 | 10.0 | 20.0 | 0.00 | 0.00 | 0.00 | 49 | 1013.2 |
| 20260502064303 | 63 | 241 | 9.0 | 17.0 | 0.00 | 0.00 | 0.00 | 50 | 1013.6 |
| 20260502063802 | 61 | 269 | 7.0 | 15.0 | 0.00 | 0.00 | 0.00 | 53 | 1013.7 |
| 20260502062802 | 61 | 308 | 8.0 | 12.0 | 0.00 | 0.00 | 0.00 | 54 | 1013.8 |
| 20260502062306 | 62 | 264 | 6.0 | 14.0 | 0.00 | 0.00 | 0.00 | 53 | 1013.6 |
| 20260502061803 | 63 | 298 | 3.0 | 9.0 | 0.00 | 0.00 | 0.00 | 50 | 1013.5 |
| 20260502061302 | 64 | 282 | 8.0 | 17.0 | 0.00 | 0.00 | 0.00 | 46 | 1013.5 |
| 20260502060802 | 65 | 263 | 6.0 | 15.0 | 0.00 | 0.00 | 0.00 | 47 | 1013.5 |
| 20260502055305 | 65 | 262 | 8.0 | 17.0 | 0.00 | 0.00 | 0.00 | 46 | 1013.2 |
| 20260502054803 | 65 | 256 | 12.0 | 23.0 | 0.00 | 0.00 | 0.00 | 46 | 1013.0 |
| 20260502054302 | 65 | 274 | 12.0 | 20.0 | 0.00 | 0.00 | 0.00 | 46 | 1013.1 |
| 20260502053802 | 65 | 283 | 13.0 | 24.0 | 0.00 | 0.00 | 0.00 | 45 | 1013.0 |
| 20260502053303 | 65 | 275 | 11.0 | 21.0 | 0.00 | 0.00 | 0.00 | 45 | 1013.2 |
| 20260502052803 | 66 | 272 | 8.0 | 15.0 | 0.00 | 0.00 | 0.00 | 44 | 1013.4 |
| 20260502052306 | 66 | 252 | 7.0 | 14.0 | 0.00 | 0.00 | 0.00 | 43 | 1013.4 |
| 20260502051802 | 67 | 269 | 7.0 | 20.0 | 0.00 | 0.00 | 0.00 | 42 | 1013.2 |
| 20260502051302 | 67 | 271 | 9.0 | 18.0 | 0.00 | 0.00 | 0.00 | 42 | 1013.1 |
| 20260502050803 | 67 | 254 | 10.0 | 18.0 | 0.00 | 0.00 | 0.00 | 42 | 1013.1 |
| 20260502050303 | 67 | 288 | 10.0 | 17.0 | 0.00 | 0.00 | 0.00 | 42 | 1013.0 |
| 20260502045803 | 67 | 262 | 10.0 | 18.0 | 0.00 | 0.00 | 0.00 | 43 | 1013.1 |
| 20260502044302 | 68 | 255 | 9.0 | 16.0 | 0.00 | 0.00 | 0.00 | 42 | 1012.8 |
| 20260502043803 | 68 | 264 | 9.0 | 18.0 | 0.00 | 0.00 | 0.00 | 42 | 1012.9 |
| 20260502043303 | 68 | 263 | 10.0 | 18.0 | 0.00 | 0.00 | 0.00 | 42 | 1012.8 |
| 20260502042803 | 68 | 279 | 9.0 | 22.0 | 0.00 | 0.00 | 0.00 | 42 | 1012.6 |
| 20260502041803 | 68 | 293 | 10.0 | 21.0 | 0.00 | 0.00 | 0.00 | 42 | 1012.2 |
| 20260502041303 | 68 | 283 | 12.0 | 22.0 | 0.00 | 0.00 | 0.00 | 41 | 1012.6 |
| 20260502040802 | 68 | 270 | 11.0 | 21.0 | 0.00 | 0.00 | 0.00 | 42 | 1012.5 |
| 20260502040303 | 68 | 293 | 12.0 | 24.0 | 0.00 | 0.00 | 0.00 | 41 | 1012.4 |
| 20260502035803 | 68 | 258 | 9.0 | 20.0 | 0.00 | 0.00 | 0.00 | 42 | 1012.5 |
| 20260502035306 | 68 | 286 | 10.0 | 21.0 | 0.00 | 0.00 | 0.00 | 42 | 1012.4 |
| 20260502034803 | 68 | 277 | 9.0 | 21.0 | 0.00 | 0.00 | 0.00 | 42 | 1012.5 |
| 20260502033803 | 69 | 227 | 5.0 | 18.0 | 0.00 | 0.00 | 0.00 | 42 | 1012.5 |
| 20260502033302 | 69 | 256 | 12.0 | 21.0 | 0.00 | 0.00 | 0.00 | 42 | 1012.2 |
| 20260502032802 | 68 | 252 | 11.0 | 20.0 | 0.00 | 0.00 | 0.00 | 43 | 1012.1 |
| 20260502032305 | 68 | 272 | 12.0 | 23.0 | 0.00 | 0.00 | 0.00 | 43 | 1012.0 |
| 20260502030802 | 69 | 274 | 14.0 | 29.0 | 0.00 | 0.00 | 0.00 | 41 | 1012.0 |
| 20260502025802 | 69 | 255 | 15.0 | 23.0 | 0.00 | 0.00 | 0.00 | 41 | 1011.9 |
| 20260502025306 | 70 | 263 | 12.0 | 22.0 | 0.00 | 0.00 | 0.00 | 41 | 1011.8 |
| 20260502024302 | 70 | 278 | 16.0 | 26.0 | 0.00 | 0.00 | 0.00 | 40 | 1011.6 |
| 20260502023804 | 70 | 253 | 14.0 | 22.0 | 0.00 | 0.00 | 0.00 | 40 | 1011.5 |
| 20260502023303 | 70 | 273 | 17.0 | 24.0 | 0.00 | 0.00 | 0.00 | 40 | 1011.6 |
| 20260502022306 | 70 | 271 | 14.0 | 25.0 | 0.00 | 0.00 | 0.00 | 40 | 1011.4 |
| 20260502021803 | 70 | 284 | 13.0 | 22.0 | 0.00 | 0.00 | 0.00 | 40 | 1011.3 |
| 20260502020803 | 71 | 278 | 13.0 | 24.0 | 0.00 | 0.00 | 0.00 | 41 | 1011.4 |
| 20260502020303 | 71 | 297 | 12.0 | 23.0 | 0.00 | 0.00 | 0.00 | 40 | 1011.2 |
| 20260502015803 | 71 | 261 | 11.0 | 23.0 | 0.00 | 0.00 | 0.00 | 39 | 1011.4 |
| 20260502015305 | 71 | 279 | 10.0 | 24.0 | 0.00 | 0.00 | 0.00 | 40 | 1011.3 |
| 20260502014802 | 72 | 287 | 10.0 | 24.0 | 0.00 | 0.00 | 0.00 | 39 | 1011.2 |
| 20260502014303 | 72 | 279 | 10.0 | 17.0 | 0.00 | 0.00 | 0.00 | 39 | 1011.2 |
| 20260502013803 | 72 | 275 | 10.0 | 20.0 | 0.00 | 0.00 | 0.00 | 39 | 1011.2 |
| 20260502013302 | 72 | 282 | 10.0 | 17.0 | 0.00 | 0.00 | 0.00 | 39 | 1011.2 |
| 20260502012802 | 73 | 289 | 9.0 | 17.0 | 0.00 | 0.00 | 0.00 | 39 | 1011.2 |
| 20260502012306 | 73 | 281 | 12.0 | 18.0 | 0.00 | 0.00 | 0.00 | 39 | 1011.1 |
| 20260502011802 | 73 | 288 | 12.0 | 21.0 | 0.00 | 0.00 | 0.00 | 39 | 1011.1 |
| 20260502011303 | 73 | 289 | 10.0 | 24.0 | 0.00 | 0.00 | 0.00 | 38 | 1011.0 |
| 20260502010803 | 73 | 290 | 10.0 | 16.0 | 0.00 | 0.00 | 0.00 | 37 | 1011.0 |
| 20260502010303 | 74 | 278 | 9.0 | 16.0 | 0.00 | 0.00 | 0.00 | 37 | 1011.0 |
| 20260502005305 | 74 | 283 | 9.0 | 17.0 | 0.00 | 0.00 | 0.00 | 36 | 1011.0 |
| 20260502004803 | 74 | 283 | 9.0 | 17.0 | 0.00 | 0.00 | 0.00 | 35 | 1011.0 |
| 20260502004302 | 74 | 304 | 9.0 | 14.0 | 0.00 | 0.00 | 0.00 | 36 | 1010.9 |
| 20260502003303 | 73 | 299 | 5.0 | 14.0 | 0.00 | 0.00 | 0.00 | 38 | 1011.0 |
| 20260502002803 | 73 | 272 | 7.0 | 13.0 | 0.00 | 0.00 | 0.00 | 38 | 1011.0 |
| 20260502002305 | 73 | 279 | 7.0 | 15.0 | 0.00 | 0.00 | 0.00 | 37 | 1011.1 |
| 20260502001302 | 74 | 288 | 7.0 | 15.0 | 0.00 | 0.00 | 0.00 | 36 | 1011.1 |
| 20260502000802 | 75 | 273 | 7.0 | 14.0 | 0.00 | 0.00 | 0.00 | 35 | 1011.1 |
| 20260502000303 | 75 | 295 | 6.0 | 13.0 | 0.00 | 0.00 | 0.00 | 36 | 1011.1 |
| 20260501235803 | 74 | 292 | 7.0 | 13.0 | 0.00 | 0.00 | 0.00 | 36 | 1011.2 |
| 20260501235305 | 74 | 295 | 7.0 | 14.0 | 0.00 | 0.00 | 0.00 | 36 | 1011.2 |
| 20260501234803 | 74 | 296 | 7.0 | 15.0 | 0.00 | 0.00 | 0.00 | 36 | 1011.3 |
| 20260501234302 | 74 | 284 | 8.0 | 14.0 | 0.00 | 0.00 | 0.00 | 36 | 1011.3 |
| 20260501233802 | 73 | 277 | 7.0 | 13.0 | 0.00 | 0.00 | 0.00 | 36 | 1011.4 |
| 20260501233303 | 73 | 293 | 8.0 | 15.0 | 0.00 | 0.00 | 0.00 | 36 | 1011.5 |
| 20260501232803 | 73 | 291 | 6.0 | 16.0 | 0.00 | 0.00 | 0.00 | 37 | 1011.5 |
| 20260501232305 | 73 | 283 | 10.0 | 15.0 | 0.00 | 0.00 | 0.00 | 37 | 1011.6 |
| 20260501231303 | 73 | 281 | 9.0 | 17.0 | 0.00 | 0.00 | 0.00 | 36 | 1011.7 |
| 20260501230803 | 73 | 281 | 7.0 | 15.0 | 0.00 | 0.00 | 0.00 | 36 | 1011.8 |
| 20260501230303 | 74 | 280 | 9.0 | 16.0 | 0.00 | 0.00 | 0.00 | 34 | 1011.9 |
| 20260501225803 | 74 | 286 | 8.0 | 15.0 | 0.00 | 0.00 | 0.00 | 34 | 1012.0 |
| 20260501224802 | 75 | 284 | 7.0 | 12.0 | 0.00 | 0.00 | 0.00 | 33 | 1012.2 |
| 20260501224303 | 75 | 282 | 6.0 | 10.0 | 0.00 | 0.00 | 0.00 | 31 | 1012.3 |
| 20260501223803 | 75 | 287 | 7.0 | 14.0 | 0.00 | 0.00 | 0.00 | 30 | 1012.4 |
| 20260501223302 | 74 | 272 | 8.0 | 13.0 | 0.00 | 0.00 | 0.00 | 30 | 1012.4 |
| 20260501222803 | 75 | 308 | 6.0 | 9.0 | 0.00 | 0.00 | 0.00 | 29 | 1012.4 |
| 20260501222305 | 75 | 308 | 5.0 | 9.0 | 0.00 | 0.00 | 0.00 | 28 | 1012.5 |
| 20260501221802 | 76 | 311 | 4.0 | 8.0 | 0.00 | 0.00 | 0.00 | 28 | 1012.5 |
| 20260501221302 | 75 | 299 | 4.0 | 7.0 | 0.00 | 0.00 | 0.00 | 28 | 1012.6 |